Regional Weather Roundup
Issued by NWS

Home | Current Version | Previous Version | Graphics & Text | Print | Product List | Glossary On
Versions: 1 2 3 4 5 6 7 8 9 10 11 12 13 14 15 16 17 18 19 20 21 22 23 24 25 26 27 28 29 30 31 32 33 34 35 36 37 38 39 40 41 42 43 44 45 46 47 48 49 50
000
ASUS43 KFSD 241210
RWRSD

WEATHER ROUNDUP FOR SOUTH DAKOTA
NATIONAL WEATHER SERVICE SIOUX FALLS SD
700 AM CDT SAT JUN 24 2017

NOTE: "FAIR" INDICATES FEW OR NO CLOUDS BELOW 12,000 FEET WITH NO
SIGNIFICANT WEATHER AND/OR OBSTRUCTIONS TO VISIBILITY.


SDZ001>005-009-010-012>017-241300-
NORTHWEST AND NORTH CENTRAL SOUTH DAKOTA

CITY           SKY/WX    TMP DP  RH WIND       PRES   REMARKS
BUFFALO          N/A     48  31  51 NW14      30.16R
FAITH            N/A     49  33  54 W13       30.19R
MOBRIDGE       CLOUDY    51  37  58 NW9       30.13R
$$

SDZ012>016-024>037-041>051-057-063-072>074-241300-
SOUTHWEST AND SOUTH CENTRAL SOUTH DAKOTA

CITY           SKY/WX    TMP DP  RH WIND       PRES   REMARKS
RAPID CTY ARPT PTCLDY    49  31  49 NW6       30.25R
PIERRE         PTCLDY    49  37  63 W10       30.15R
CUSTER         PTCLDY    40  25  55 W3        30.31R
ELLSWORTH AFB  PTCLDY    48  30  49 W6        30.24R
PHILIP         CLEAR     46  33  60 W6        30.21R
PINE RIDGE     CLEAR     38  34  85 CALM      30.27R
WINNER         FAIR      50  35  56 SW6       30.18S
$$

SDZ004>011-016>023-039-040-241300-
NORTHEAST SOUTH DAKOTA

CITY           SKY/WX    TMP DP  RH WIND       PRES   REMARKS
ABERDEEN       CLOUDY    49  42  77 NW6       30.09R
WATERTOWN      CLOUDY    50  43  77 W9        30.08R
BROOKINGS      MOSUNNY   46  42  86 SW5       30.10R
SISSETON         N/A     53  41  63 NW12      30.05S
$$

SDZ017-020-022-023-036>040-048>070-241300-
SOUTHEAST SOUTH DAKOTA

CITY           SKY/WX    TMP DP  RH WIND       PRES   REMARKS
SIOUX FALLS    MOSUNNY   51  44  77 VRB5      30.12R
HURON          SUNNY     49  41  74 SW9       30.11S
CHAMBERLAIN    CLOUDY    50  40  67 W10       30.16R
MITCHELL       PTSUNNY   51  40  65 W9        30.14R
YANKTON        SUNNY     51  43  74 SW7       30.15R
$$

ABBREVIATIONS USED IN REMARKS
   TC - TEMPERATURE IN CELSIUS
  WCI - WIND CHILL INDEX
   HX - HEAT INDEX
  VSB - VISIBILITY





USA.gov is the U.S. government's official web portal to all federal, state and local government web resources and services.